| time (UTC) | temp C | wind direction | speed KPH | gust KPH | rain 1hr cm | rain 24hr cm | rain mn cm | humidity % | barometer mb |
| 20260502180424 | 15 | 231 | 4.8 | 16.1 | 0.00 | 0.00 | 0.00 | 42 | 1020.7 |
| 20260502170252 | 13 | 262 | 4.8 | 25.7 | 0.00 | 0.00 | 0.00 | 45 | 1021.5 |
| 20260502164244 | 13 | 272 | 6.4 | 19.3 | 0.00 | 0.00 | 0.00 | 46 | 1021.6 |
| 20260502163301 | 13 | 255 | 8.0 | 19.3 | 0.00 | 0.00 | 0.00 | 45 | 1021.8 |
| 20260502161302 | 12 | 257 | 8.0 | 20.9 | 0.00 | 0.00 | 0.00 | 44 | 1022.0 |
| 20260502152139 | 11 | 201 | 4.8 | 17.7 | 0.00 | 0.00 | 0.00 | 49 | 1022.5 |
| 20260502151139 | 11 | 250 | 4.8 | 16.1 | 0.00 | 0.00 | 0.00 | 50 | 1022.5 |
| 20260502150120 | 11 | 238 | 6.4 | 19.3 | 0.00 | 0.00 | 0.00 | 53 | 1022.7 |
| 20260502121943 | 0 | 189 | 0.0 | 0.0 | 0.00 | 0.00 | 0.00 | 83 | 1023.7 |
| 20260502115843 | 0 | 266 | 0.0 | 0.0 | 0.00 | 0.00 | 0.00 | 83 | 1023.7 |
| 20260502114855 | 0 | 266 | 0.0 | 1.6 | 0.00 | 0.00 | 0.00 | 83 | 1023.6 |
| 20260502113821 | 0 | 266 | 0.0 | 0.0 | 0.00 | 0.00 | 0.00 | 83 | 1023.6 |
| 20260502112807 | 0 | 266 | 0.0 | 0.0 | 0.00 | 0.00 | 0.00 | 83 | 1023.6 |
| 20260502111810 | 0 | 266 | 0.0 | 0.0 | 0.00 | 0.00 | 0.00 | 83 | 1023.4 |
| 20260502105849 | 0 | 266 | 0.0 | 0.0 | 0.00 | 0.00 | 0.00 | 83 | 1023.6 |
| 20260502104829 | 0 | 266 | 0.0 | 1.6 | 0.00 | 0.00 | 0.00 | 83 | 1023.5 |
| 20260502102839 | 0 | 266 | 0.0 | 3.2 | 0.00 | 0.00 | 0.00 | 82 | 1023.7 |
| 20260502100822 | 0 | 274 | 0.0 | 0.0 | 0.00 | 0.00 | 0.00 | 81 | 1023.7 |
| 20260502090724 | 0 | 354 | 0.0 | 0.0 | 0.00 | 0.00 | 0.00 | 81 | 1023.5 |
| 20260502065606 | 1 | 354 | 0.0 | 0.0 | 0.00 | 0.00 | 0.00 | 79 | 1023.5 |
| 20260502064552 | 1 | 354 | 0.0 | 1.6 | 0.00 | 0.00 | 0.00 | 79 | 1023.5 |
| 20260502063600 | 1 | 354 | 0.0 | 1.6 | 0.00 | 0.00 | 0.00 | 78 | 1023.7 |
| 20260502060431 | 1 | 15 | 0.0 | 0.0 | 0.00 | 0.00 | 0.00 | 77 | 1023.8 |
| 20260502054334 | 2 | 15 | 0.0 | 0.0 | 0.00 | 0.00 | 0.00 | 77 | 1023.6 |
| 20260502053356 | 2 | 15 | 0.0 | 0.0 | 0.00 | 0.00 | 0.00 | 77 | 1023.6 |
| 20260502051424 | 2 | 15 | 0.0 | 0.0 | 0.00 | 0.00 | 0.00 | 75 | 1023.6 |
| 20260502050419 | 2 | 15 | 0.0 | 0.0 | 0.00 | 0.00 | 0.00 | 75 | 1023.5 |
| 20260502045427 | 2 | 15 | 0.0 | 0.0 | 0.00 | 0.00 | 0.00 | 74 | 1023.5 |
| 20260502044412 | 2 | 15 | 0.0 | 0.0 | 0.00 | 0.00 | 0.00 | 72 | 1023.4 |
| 20260502043424 | 3 | 15 | 0.0 | 0.0 | 0.00 | 0.00 | 0.00 | 71 | 1023.5 |
| 20260502041350 | 3 | 15 | 0.0 | 0.0 | 0.00 | 0.00 | 0.00 | 69 | 1023.2 |
| 20260502040330 | 4 | 15 | 0.0 | 0.0 | 0.00 | 0.00 | 0.00 | 69 | 1023.3 |
| 20260502035355 | 4 | 15 | 0.0 | 0.0 | 0.00 | 0.00 | 0.00 | 70 | 1023.3 |
| 20260502034350 | 4 | 15 | 0.0 | 0.0 | 0.00 | 0.00 | 0.00 | 69 | 1023.3 |
| 20260502033321 | 4 | 15 | 0.0 | 0.0 | 0.00 | 0.00 | 0.00 | 68 | 1023.4 |
| 20260502032300 | 5 | 15 | 0.0 | 0.0 | 0.00 | 0.00 | 0.00 | 67 | 1023.5 |
| 20260502031228 | 5 | 15 | 0.0 | 0.0 | 0.00 | 0.00 | 0.00 | 66 | 1023.4 |
| 20260502030249 | 5 | 15 | 0.0 | 0.0 | 0.00 | 0.00 | 0.00 | 65 | 1023.5 |
| 20260502024218 | 5 | 15 | 0.0 | 0.0 | 0.00 | 0.00 | 0.00 | 63 | 1023.2 |
| 20260502022144 | 6 | 15 | 0.0 | 0.0 | 0.00 | 0.05 | 0.00 | 60 | 1023.1 |
| 20260502021118 | 6 | 15 | 0.0 | 0.0 | 0.00 | 0.05 | 0.00 | 61 | 1023.1 |
| 20260502020055 | 7 | 15 | 0.0 | 0.0 | 0.00 | 0.05 | 0.00 | 59 | 1022.9 |
| 20260502015113 | 7 | 15 | 0.0 | 0.0 | 0.00 | 0.05 | 0.00 | 59 | 1022.6 |
| 20260502014128 | 7 | 359 | 0.0 | 4.8 | 0.00 | 0.08 | 0.00 | 58 | 1022.6 |
| 20260502013144 | 8 | 342 | 0.0 | 6.4 | 0.00 | 0.08 | 0.00 | 56 | 1022.5 |
| 20260502012149 | 8 | 334 | 1.6 | 8.0 | 0.00 | 0.08 | 0.00 | 55 | 1022.4 |
| 20260502011205 | 8 | 342 | 1.6 | 8.0 | 0.00 | 0.08 | 0.00 | 54 | 1022.4 |
| 20260502010142 | 8 | 344 | 3.2 | 8.0 | 0.00 | 0.08 | 0.00 | 53 | 1022.4 |
| 20260502004202 | 9 | 324 | 3.2 | 16.1 | 0.00 | 0.08 | 0.00 | 51 | 1022.1 |
| 20260502002201 | 9 | 325 | 1.6 | 11.3 | 0.00 | 0.08 | 0.00 | 50 | 1022.2 |
| 20260501235101 | 11 | 354 | 3.2 | 20.9 | 0.00 | 0.08 | 0.00 | 47 | 1022.1 |
| 20260501234052 | 11 | 331 | 4.8 | 20.9 | 0.00 | 0.08 | 0.00 | 48 | 1022.0 |
| 20260501233038 | 10 | 324 | 3.2 | 14.5 | 0.00 | 0.08 | 0.00 | 50 | 1022.1 |
| 20260501232031 | 10 | 321 | 3.2 | 14.5 | 0.00 | 0.08 | 0.00 | 49 | 1022.1 |
| 20260501223959 | 11 | 8 | 4.8 | 17.7 | 0.00 | 0.08 | 0.00 | 48 | 1021.9 |
| 20260501222939 | 10 | 359 | 4.8 | 19.3 | 0.00 | 0.08 | 0.00 | 47 | 1022.0 |
| 20260501221943 | 10 | 45 | 4.8 | 19.3 | 0.00 | 0.08 | 0.00 | 47 | 1022.0 |
| 20260501220953 | 10 | 332 | 4.8 | 14.5 | 0.00 | 0.08 | 0.00 | 49 | 1022.1 |
| 20260501214948 | 10 | 58 | 3.2 | 22.5 | 0.00 | 0.08 | 0.00 | 49 | 1022.0 |
| 20260501213006 | 10 | 347 | 4.8 | 16.1 | 0.00 | 0.08 | 0.00 | 49 | 1022.1 |
| 20260501212027 | 10 | 53 | 4.8 | 16.1 | 0.00 | 0.08 | 0.00 | 48 | 1022.1 |
| 20260501211030 | 11 | 316 | 3.2 | 19.3 | 0.00 | 0.08 | 0.00 | 53 | 1022.1 |
| 20260501205958 | 10 | 23 | 8.0 | 22.5 | 0.00 | 0.08 | 0.00 | 51 | 1022.2 |
| 20260501204929 | 10 | 354 | 6.4 | 22.5 | 0.00 | 0.08 | 0.00 | 52 | 1022.2 |
| 20260501203918 | 10 | 341 | 8.0 | 20.9 | 0.00 | 0.08 | 0.00 | 54 | 1022.3 |
| 20260501202936 | 10 | 277 | 3.2 | 14.5 | 0.00 | 0.08 | 0.00 | 54 | 1022.4 |
| 20260501201915 | 10 | 321 | 3.2 | 20.9 | 0.00 | 0.08 | 0.00 | 54 | 1022.3 |
| 20260501200917 | 10 | 26 | 4.8 | 20.9 | 0.00 | 0.08 | 0.00 | 55 | 1022.3 |
| 20260501195856 | 10 | 4 | 9.7 | 19.3 | 0.00 | 0.08 | 0.00 | 52 | 1022.3 |
| 20260501193801 | 9 | 354 | 4.8 | 17.7 | 0.00 | 0.08 | 0.00 | 55 | 1022.4 |
| 20260501192818 | 8 | 4 | 6.4 | 22.5 | 0.00 | 0.08 | 0.00 | 55 | 1022.4 |
| 20260501191759 | 9 | 339 | 3.2 | 22.5 | 0.00 | 0.08 | 0.00 | 55 | 1022.3 |
| 20260501190807 | 9 | 72 | 3.2 | 14.5 | 0.00 | 0.08 | 0.00 | 54 | 1022.3 |
| 20260501185803 | 9 | 54 | 6.4 | 17.7 | 0.00 | 0.08 | 0.00 | 54 | 1022.3 |
| 20260501183657 | 8 | 23 | 4.8 | 22.5 | 0.00 | 0.08 | 0.00 | 56 | 1022.3 |
| 20260501181653 | 8 | 327 | 6.4 | 27.4 | 0.00 | 0.08 | 0.00 | 59 | 1022.3 |